TimeCDT,TemperatureF,Dew PointF,Humidity,Sea Level PressureIn,VisibilityMPH,Wind Direction,Wind SpeedMPH,Gust SpeedMPH,PrecipitationIn,Events,Conditions,WindDirDegrees,DateUTC
12:15 AM,68.0,64.4,88,29.72,10.0,South,9.2,-,N/A,,Clear,180,2013-08-07 05:15:00
12:35 AM,69.8,64.4,83,29.71,10.0,South,13.8,-,N/A,Thunderstorm,Mostly Cloudy,180,2013-08-07 05:35:00
12:55 AM,64.4,62.6,94,29.76,4.0,NW,21.9,31.1,0.35,Thunderstorm,Thunderstorm,310,2013-08-07 05:55:00
1:15 AM,62.6,60.8,94,29.76,8.0,NNW,17.3,-,0.24,Thunderstorm,Thunderstorm,340,2013-08-07 06:15:00
1:35 AM,62.6,60.8,94,29.79,9.0,NW,15.0,27.6,0.32,Thunderstorm,Overcast,320,2013-08-07 06:35:00
1:55 AM,62.6,59.0,88,29.79,10.0,WNW,9.2,-,0.39,Thunderstorm,Mostly Cloudy,290,2013-08-07 06:55:00
2:15 AM,62.6,60.8,94,29.74,10.0,NNE,5.8,-,0.10,Thunderstorm,Overcast,30,2013-08-07 07:15:00
2:35 AM,60.8,60.8,100,29.69,10.0,ESE,5.8,-,0.11,,Mostly Cloudy,110,2013-08-07 07:35:00
2:55 AM,60.8,59.0,94,29.75,10.0,SSW,4.6,-,0.11,,Partly Cloudy,210,2013-08-07 07:55:00
3:15 AM,60.8,59.0,94,29.73,10.0,SSW,5.8,-,N/A,,Clear,210,2013-08-07 08:15:00
3:35 AM,60.8,59.0,94,29.73,10.0,SW,5.8,-,N/A,,Clear,220,2013-08-07 08:35:00
3:55 AM,60.8,59.0,94,29.73,10.0,SW,5.8,-,N/A,,Clear,220,2013-08-07 08:55:00
4:15 AM,60.8,57.2,88,29.73,10.0,WSW,4.6,-,N/A,,Clear,240,2013-08-07 09:15:00
4:35 AM,60.8,57.2,88,29.74,10.0,SW,5.8,-,N/A,,Clear,230,2013-08-07 09:35:00
4:55 AM,59.0,57.2,94,29.75,10.0,SW,8.1,-,N/A,,Clear,220,2013-08-07 09:55:00
5:15 AM,59.0,57.2,94,29.75,10.0,SW,8.1,-,N/A,,Clear,230,2013-08-07 10:15:00
5:35 AM,60.8,57.2,88,29.75,10.0,WSW,6.9,-,N/A,,Clear,240,2013-08-07 10:35:00
5:55 AM,60.8,57.2,88,29.75,10.0,WSW,6.9,-,N/A,,Clear,250,2013-08-07 10:55:00
6:15 AM,60.8,57.2,88,29.75,10.0,West,5.8,-,N/A,,Partly Cloudy,270,2013-08-07 11:15:00
6:35 AM,60.8,59.0,94,29.76,10.0,West,8.1,-,N/A,,Mostly Cloudy,260,2013-08-07 11:35:00
6:55 AM,62.6,60.8,94,29.77,8.0,WSW,11.5,-,N/A,,Overcast,250,2013-08-07 11:55:00
7:15 AM,62.6,60.8,94,29.78,9.0,West,5.8,-,N/A,,Overcast,270,2013-08-07 12:15:00
7:35 AM,62.6,60.8,94,29.78,10.0,West,8.1,-,N/A,,Overcast,270,2013-08-07 12:35:00
7:55 AM,60.8,59.0,94,29.80,7.0,West,8.1,-,N/A,,Overcast,280,2013-08-07 12:55:00
8:15 AM,60.8,59.0,94,29.80,10.0,West,10.4,-,N/A,,Overcast,270,2013-08-07 13:15:00
8:35 AM,60.8,59.0,94,29.80,10.0,West,10.4,-,N/A,,Overcast,280,2013-08-07 13:35:00
8:55 AM,62.6,60.8,94,29.78,10.0,West,9.2,-,N/A,,Overcast,280,2013-08-07 13:55:00
9:15 AM,64.4,60.8,88,29.80,10.0,WNW,9.2,-,N/A,,Overcast,300,2013-08-07 14:15:00
9:35 AM,64.4,60.8,88,29.80,9.0,NW,10.4,-,N/A,,Overcast,310,2013-08-07 14:35:00
9:55 AM,66.2,60.8,83,29.81,10.0,NW,11.5,16.1,N/A,,Overcast,310,2013-08-07 14:55:00
10:15 AM,66.2,60.8,83,29.81,10.0,WNW,11.5,-,N/A,,Overcast,300,2013-08-07 15:15:00
10:35 AM,66.2,62.6,88,29.83,10.0,WNW,9.2,-,N/A,,Overcast,300,2013-08-07 15:35:00
10:55 AM,66.2,60.8,83,29.84,10.0,NNW,11.5,-,N/A,,Overcast,340,2013-08-07 15:55:00
11:15 AM,66.2,60.8,83,29.85,10.0,NNW,12.7,-,N/A,,Overcast,340,2013-08-07 16:15:00
11:35 AM,66.2,60.8,83,29.86,10.0,North,10.4,-,N/A,,Overcast,350,2013-08-07 16:35:00
11:55 AM,68.0,60.8,78,29.86,10.0,NNW,9.2,-,N/A,,Overcast,330,2013-08-07 16:55:00
12:15 PM,69.8,60.8,73,29.87,10.0,NNW,9.2,-,N/A,,Overcast,330,2013-08-07 17:15:00
12:35 PM,68.0,60.8,78,29.87,10.0,NNW,10.4,-,N/A,,Overcast,340,2013-08-07 17:35:00
12:55 PM,69.8,60.8,73,29.88,10.0,North,9.2,-,N/A,,Overcast,350,2013-08-07 17:55:00
1:15 PM,69.8,60.8,73,29.87,10.0,North,5.8,-,N/A,,Overcast,350,2013-08-07 18:15:00
1:35 PM,69.8,62.6,78,29.88,10.0,NNW,6.9,-,N/A,,Scattered Clouds,340,2013-08-07 18:35:00
1:55 PM,69.8,60.8,73,29.89,10.0,North,3.5,-,N/A,,Mostly Cloudy,350,2013-08-07 18:55:00
2:15 PM,69.8,60.8,73,29.89,10.0,NNE,9.2,-,N/A,,Overcast,20,2013-08-07 19:15:00
2:35 PM,69.8,60.8,73,29.89,10.0,North,6.9,-,N/A,,Overcast,10,2013-08-07 19:35:00
2:55 PM,71.6,60.8,69,29.89,10.0,North,3.5,-,N/A,,Scattered Clouds,350,2013-08-07 19:55:00
3:15 PM,71.6,60.8,69,29.89,10.0,North,6.9,-,N/A,,Scattered Clouds,10,2013-08-07 20:15:00
3:35 PM,71.6,60.8,69,29.89,10.0,NNW,6.9,-,N/A,,Scattered Clouds,330,2013-08-07 20:35:00
3:55 PM,71.6,60.8,69,29.89,10.0,NNW,9.2,-,N/A,,Scattered Clouds,340,2013-08-07 20:55:00
4:15 PM,71.6,59.0,64,29.89,10.0,North,9.2,-,N/A,,Partly Cloudy,350,2013-08-07 21:15:00
4:35 PM,71.6,59.0,64,29.89,10.0,North,9.2,-,N/A,,Clear,10,2013-08-07 21:35:00
4:55 PM,71.6,59.0,64,29.90,10.0,North,9.2,-,N/A,,Clear,360,2013-08-07 21:55:00
5:15 PM,71.6,59.0,64,29.90,10.0,NNE,8.1,-,N/A,,Clear,20,2013-08-07 22:15:00
5:35 PM,71.6,59.0,64,29.91,10.0,North,6.9,-,N/A,,Partly Cloudy,10,2013-08-07 22:35:00
5:55 PM,71.6,59.0,64,29.91,10.0,North,6.9,-,N/A,,Scattered Clouds,10,2013-08-07 22:55:00
6:15 PM,71.6,59.0,64,29.91,10.0,North,5.8,-,N/A,,Mostly Cloudy,10,2013-08-07 23:15:00
6:35 PM,71.6,59.0,64,29.92,10.0,North,5.8,-,N/A,,Partly Cloudy,10,2013-08-07 23:35:00
6:55 PM,71.6,57.2,60,29.92,10.0,North,5.8,-,N/A,,Clear,10,2013-08-07 23:55:00
7:15 PM,69.8,59.0,68,29.92,10.0,North,4.6,-,N/A,,Clear,10,2013-08-08 00:15:00
7:35 PM,69.8,59.0,68,29.93,10.0,North,3.5,-,N/A,,Partly Cloudy,350,2013-08-08 00:35:00
7:55 PM,68.0,59.0,73,29.94,10.0,North,3.5,-,N/A,,Mostly Cloudy,350,2013-08-08 00:55:00
8:15 PM,66.2,59.0,78,29.95,10.0,ENE,8.1,-,N/A,,Mostly Cloudy,60,2013-08-08 01:15:00
8:35 PM,64.4,60.8,88,29.96,10.0,ENE,5.8,-,N/A,,Mostly Cloudy,60,2013-08-08 01:35:00
8:55 PM,64.4,59.0,83,29.98,10.0,East,4.6,-,N/A,,Mostly Cloudy,90,2013-08-08 01:55:00
9:15 PM,64.4,59.0,83,29.99,10.0,East,4.6,-,N/A,,Mostly Cloudy,90,2013-08-08 02:15:00
9:35 PM,64.4,59.0,83,30.00,10.0,East,3.5,-,N/A,,Mostly Cloudy,100,2013-08-08 02:35:00
9:55 PM,64.4,60.8,88,30.01,10.0,East,6.9,-,N/A,,Scattered Clouds,80,2013-08-08 02:55:00
10:15 PM,62.6,59.0,88,30.01,10.0,ENE,4.6,-,N/A,,Mostly Cloudy,70,2013-08-08 03:15:00
10:35 PM,62.6,59.0,88,30.01,10.0,ENE,3.5,-,N/A,,Scattered Clouds,70,2013-08-08 03:35:00
10:55 PM,62.6,59.0,88,30.02,10.0,East,3.5,-,N/A,,Clear,90,2013-08-08 03:55:00
11:15 PM,62.6,59.0,88,30.02,10.0,East,3.5,-,N/A,,Clear,80,2013-08-08 04:15:00
11:35 PM,60.8,57.2,88,30.02,10.0,East,4.6,-,N/A,,Clear,80,2013-08-08 04:35:00
11:55 PM,60.8,57.2,88,30.02,10.0,East,4.6,-,N/A,,Clear,80,2013-08-08 04:55:00